SCP
0 0 0 -0 0 0 0 -0 -0 -0 -0 -0 -0 0 -0 0 0 0 -0 -0 -0 -0 -0 -0 -0 -0 -0 -0 -0 -0 -0 -0 -0 -0 0 -0 0 0 0 0 0 0 0 0
0 0 0 -0 -0 0 0 0 0 -0 0 0 0 -0 -0 -0 -0 -0 -0 -0 0 -0 -0 -0 -0 -0 -0 -0 -0 -0 0 -0 -0 -0 0 0 0 0 0 0 0 0 0 0
-0 -0 -0 -0 -0 0 0 -0 -0 -0 -0 -0 -0 -0 0 0 0 -0 -0 -0 -0 -0 -0 -0 0 -0 -0 -0 -0 -0 -0 -0 -0 -0 0 0 0 0 0 0 0 0 0 0
-0 -0 -0 -0 -0 0 -0 -0 -0 -0 0 0 -0 -0 -0 -0 -0 -0 -0 -0 -0 -0 -0 -0 0 -0 -0 -0 0 0 0 0 0 0 0 0 0 0 0 0 0 0 0 0
-0 -0 -0 0 0 0 -0 -0 -0 -0 0 0 0 0 -0 -0 -0 -0 -0 -0 -0 -0 -0 -0 -0 -0 0 0 0 0 0 0 0 0 0 0 0 0 0 0 0 0 0 0
-0 -0 0 0 0 0 0 0 0 0 0 0 0 0 0 -0 -0 -0 -0 -0 -0 -0 -0 -0 -0 0 0 0 0 0 0 0 0 0 0 0 0 -0 0 0 0 0 0 0
0 0 -0 -0 -0 0 0 0 0 0 0 0 0 0 -0 -0 -0 -0 -0 -0 -0 -0 -0 -0 -0 0 0 0 0 0 0 0 0 0 0 0 0 0 0 0 0 0 0 0
-0 -0 -0 -0 -0 0 -0 0 0 -0 0 0 0 -0 -0 -0 0 -0 -0 -0 -0 -0 -0 -0 -0 0 0 0 0 0 0 0 0 0 0 0 0 0 0 0 0 0 -0 0
-0 -0 -0 -0 0 0 -0 0 0 0 0 0 0 0 0 0 -0 -0 -0 -0 -0 -0 -0 -0 -0 0 0 0 0 0 0 0 0 0 0 0 0 -0 -0 -0 0 -0 0 0
-0 0 -0 0 0 0 0 0 0 0 0 0 0 -0 -0 0 -0 0 -0 -0 -0 0 0 -0 -0 0 0 0 0 0 0 0 0 0 0 0 0 -0 -0 -0 0 0 0 0
-0 0 0 0 0 0 0 0 0 0 0 0 0 -0 0 0 -0 -0 -0 -0 -0 0 0 -0 -0 -0 0 -0 0 0 0 0 0 0 0 0 0 0 -0 -0 0 0 0 0
0 0 0 0 0 -0 0 0 0 0 0 0 -0 -0 -0 0 0 -0 -0 -0 -0 -0 -0 -0 -0 -0 0 0 0 0 0 0 0 0 0 0 0 0 0 0 -0 0 0 0
0 0 0 0 0 0 0 0 0 0 0 0 0 0 -0 -0 0 -0 -0 -0 -0 -0 -0 -0 -0 -0 -0 -0 0 0 0 0 -0 0 0 0 0 0 0 0 0 0 0 0
0 0 0 -0 0 0 0 0 0 0 0 0 0 -0 -0 -0 0 0 -0 -0 -0 -0 -0 -0 -0 -0 -0 -0 0 0 0 0 0 0 0 0 0 0 0 0 0 0 0 0
0 0 0 0 0 0 0 0 0 0 0 0 -0 -0 -0 0 -0 -0 0 0 -0 -0 -0 -0 -0 -0 -0 0 -0 -0 0 0 0 0 0 0 0 0 0 0 0 0 0 0
0 0 0 0 0 0 0 0 0 0 0 0 0 -0 -0 -0 -0 0 -0 0 0 -0 -0 -0 -0 -0 -0 -0 -0 0 0 0 0 0 0 0 0 0 0 0 0 0 0 0
0 0 0 0 0 0 0 0 0 0 0 0 0 0 0 0 0 0 0 0 0 0 0 0 -0 -0 -0 -0 -0 0 0 0 0 0 0 0 0 0 -0 0 0 0 0 0
0 0 0 0 0 0 0 0 0 0 0 0 0 0 0 0 0 0 0 0 0 0 0 0 0 0 0 0 0 0 0 0 0 0 0 0 -0 0 -0 -0 -0 0 0 0
0 0 0 0 0 0 0 0 0 0 0 0 0 0 0 0 0 0 0 0 0 0 0 0 0 0 0 0 0 0 0 0 0 0 0 0 0 -0 0 0 0 0 0 0
0 0 0 0 0 0 0 0 0 0 0 0 0 0 0 0 0 0 0 0 0 0 0 0 0 0 0 0 0 0 0 0 0 0 0 0 0 0 0 0 0 0 0 0
0 0 0 0 0 0 0 0 0 0 0 0 0 0 0 0 0 0 0 0 0 0 0 0 0 0 0 0 0 0 0 0 0 0 0 0 0 0 0 -0 0 0 0 0
0 0 0 0 0 0 0 0 0 0 0 0 0 0 0 0 0 -0 0 0 0 0 0 0 0 0 0 0 0 0 0 0 0 0 0 0 0 0 0 0 0 0 0 0
0 0 0 0 0 0 0 0 0 0 0 0 0 0 0 0 0 0 0 0 0 0 0 0 0 0 0 0 0 0 0 0 0 0 0 0 0 0 0 0 0 0 0 0
0 0 0 0 0 0 0 0 0 0 0 0 0 0 0 0 0 0 0 0 0 0 0 0 0 0 0 0 0 0 0 0 0 0 0 0 0 0 0 0 0 0 0 0
0 0 0 0 0 0 0 0 0 0 0 0 0 0 0 0 0 0 0 0 0 0 0 0 0 0 0 0 0 0 0 0 0 0 0 0 0 0 0 0 0 0 0 0
0 0 0 0 0 0 0 0 0 0 0 0 0 0 0 0 -0 0 0 0 0 0 0 0 0 0 0 0 0 0 0 0 0 0 0 0 0 0 0 0 0 0 0 0
Wind_Speed_500mb
3 8 20 22 14 2 9 4 8 5 11 11 15 12 16 34 39 37 28 31 57 68 62 61 56 47 43 36 31 30 30 28 35 33 25 26 23 17 8 9 16 11 12 12
9 12 26 9 15 12 12 9 10 6 6 9 12 20 11 14 30 40 35 37 53 52 65 66 60 55 49 41 38 39 34 29 28 30 26 27 25 17 14 13 12 11 12 12
16 16 7 8 6 13 12 18 13 1 12 7 6 12 13 13 31 36 40 45 43 55 68 68 66 61 53 49 45 43 36 31 22 20 27 29 26 25 23 19 18 13 11 14
12 16 16 10 14 16 15 26 27 13 11 5 8 9 9 13 14 21 37 53 45 59 76 72 70 67 63 56 46 46 36 40 29 24 27 36 33 33 24 22 21 11 15 16
16 7 6 10 28 17 25 15 33 22 6 5 7 3 12 8 17 29 43 53 59 59 77 82 79 71 63 60 51 44 40 39 37 33 30 33 34 37 32 25 25 23 21 25
15 7 14 19 12 18 6 13 17 13 7 6 11 11 12 11 20 24 34 49 64 63 77 81 74 77 71 66 57 47 44 40 41 41 38 40 37 39 36 34 32 29 23 23
12 11 8 10 9 6 11 12 6 5 1 11 1 10 18 15 16 18 38 49 67 68 78 82 78 77 70 67 62 56 50 44 44 44 43 42 41 42 38 40 36 33 27 22
7 15 8 10 14 16 9 17 12 11 7 8 8 11 11 6 7 13 27 50 59 64 84 86 76 78 69 60 57 55 54 51 48 48 45 43 43 39 43 32 37 35 33 30
10 12 9 10 11 17 9 5 9 14 8 5 6 13 19 3 14 14 19 40 58 67 75 91 82 73 71 60 64 55 47 53 48 44 48 47 45 46 39 36 35 39 35 32
10 4 11 14 8 5 17 15 5 5 9 8 8 10 11 7 9 11 8 29 44 59 67 78 76 71 74 61 61 59 54 53 45 42 44 47 47 48 39 35 37 35 37 35
11 7 14 1 4 16 4 2 11 12 8 11 4 11 13 16 13 16 21 33 42 48 59 67 72 69 61 57 54 58 51 48 48 48 46 51 46 52 51 45 40 40 43 41
19 11 9 23 10 2 3 10 12 10 8 3 9 10 4 17 15 21 27 33 37 49 50 48 48 60 54 68 50 44 47 59 57 51 43 45 46 49 52 54 51 45 46 45
16 9 5 20 14 7 6 8 10 11 7 12 12 11 5 9 8 32 31 30 37 44 42 40 38 42 53 63 73 51 31 34 40 45 59 49 49 49 54 52 50 52 54 53
25 8 16 23 18 11 9 7 9 13 8 9 11 8 10 4 11 13 28 36 38 42 39 38 35 35 39 47 63 63 50 47 35 23 20 45 49 53 51 53 51 53 53 59
7 13 12 14 16 12 10 19 15 8 9 12 11 20 20 22 19 40 43 41 43 45 45 38 32 28 32 39 45 52 63 57 53 59 39 34 36 53 63 57 55 51 51 53
1 3 6 1 8 13 11 17 15 14 9 5 11 14 5 16 19 20 47 45 48 51 42 35 29 24 23 25 30 34 46 55 58 61 55 56 59 55 44 52 57 58 53 50
4 6 6 5 3 7 6 14 12 9 8 13 12 20 13 11 19 39 45 49 52 48 49 45 34 23 15 18 21 25 31 41 47 50 56 56 63 54 49 49 60 63 63 59
10 6 8 4 7 5 13 7 0 11 11 13 8 17 35 48 57 57 56 60 58 55 55 51 37 28 20 17 19 19 21 23 28 32 35 40 48 53 54 55 54 53 57 63
17 8 2 10 6 10 6 7 11 11 14 18 16 12 22 30 31 21 53 60 60 59 52 46 36 32 24 19 14 13 13 12 15 14 18 22 26 30 34 43 44 43 57 63
9 12 8 2 11 11 13 5 9 9 8 7 15 19 27 41 9 11 59 59 61 51 51 49 39 29 23 21 17 14 16 19 16 14 16 20 27 31 32 32 36 34 30 32
5 7 13 2 2 12 14 17 26 14 14 10 36 49 51 21 25 53 53 58 55 50 56 45 36 28 20 16 14 17 20 23 18 16 18 21 26 27 35 35 35 33 37 42
7 11 8 9 8 15 16 7 13 17 4 13 46 52 58 45 36 56 56 56 56 58 50 42 34 27 22 20 22 27 30 24 27 25 24 23 28 28 31 36 35 36 37 38
3 3 9 12 11 16 29 10 17 14 16 16 51 59 65 56 71 69 70 67 63 58 49 39 31 24 19 23 27 32 29 33 34 31 27 25 27 34 32 31 32 32 33 33
8 6 2 7 2 23 35 9 8 21 20 15 40 68 67 62 73 75 72 67 61 52 47 39 25 17 17 18 20 22 33 35 36 34 30 31 33 40 38 32 29 29 29 32
8 12 4 9 9 23 8 42 47 16 6 27 26 63 64 60 78 82 73 65 57 51 39 25 16 14 16 19 21 22 20 24 29 30 34 40 45 43 38 29 30 30 30 32
8 8 5 8 4 6 25 48 37 30 17 30 49 55 59 63 82 77 68 61 56 47 34 22 12 9 9 10 12 16 19 24 29 35 40 38 30 30 28 27 28 34 37 42
Wind_Direction_500mb
59 88 237 204 194 204 163 179 221 209 194 143 210 237 247 200 216 230 234 208 196 209 213 206 209 208 201 195 190 184 173 169 181 182 192 193 184 177 175 126 164 165 206 217
35 217 240 140 173 168 153 185 256 81 152 143 191 230 245 198 224 225 223 211 198 205 208 210 210 207 207 202 198 198 190 179 180 197 200 197 197 200 198 174 173 177 198 222
180 215 140 188 175 157 196 199 214 224 122 44 98 292 236 249 234 220 225 213 207 210 207 207 206 209 207 205 206 204 206 205 198 191 201 206 209 207 198 199 201 199 234 252
216 251 228 229 228 156 213 210 199 173 128 219 171 267 251 192 235 227 217 214 207 206 209 206 206 207 213 210 209 210 213 214 210 207 218 213 224 216 208 211 198 217 247 254
230 184 150 216 241 156 230 155 197 183 95 75 239 26 266 144 217 225 221 209 210 209 209 206 206 211 213 212 213 214 215 212 214 215 219 216 219 216 225 216 227 238 246 258
228 242 177 225 240 193 79 71 46 53 60 318 214 161 281 191 212 218 213 206 206 207 208 206 207 213 212 210 214 217 217 221 222 225 229 229 230 222 233 228 230 238 246 239
327 270 251 187 262 149 96 88 52 25 4 226 69 132 250 278 218 204 202 192 202 205 205 202 205 205 209 211 216 221 219 224 227 233 239 241 241 235 231 233 236 235 236 246
158 318 180 176 184 194 172 153 154 194 187 239 144 221 249 290 71 169 217 202 206 205 202 205 206 205 208 217 218 221 225 226 230 235 243 248 246 245 233 234 230 240 240 244
154 273 284 195 199 143 181 151 182 99 1 57 280 290 310 67 77 97 165 192 200 208 206 211 214 218 218 228 222 225 231 232 228 236 240 246 246 240 237 230 235 240 248 236
220 282 227 283 141 124 161 162 92 13 135 234 293 286 243 294 171 147 153 203 200 212 214 213 218 215 228 226 228 229 236 229 229 238 243 249 247 241 240 239 242 236 233 227
144 121 268 30 216 163 71 188 54 113 125 157 220 258 220 225 226 164 194 219 215 211 214 220 221 226 229 227 234 226 227 228 231 246 249 248 250 245 244 242 241 237 235 232
204 157 243 235 270 218 108 172 137 128 217 153 152 269 190 248 234 169 202 218 212 214 219 226 223 221 224 225 227 221 231 239 246 236 234 245 253 248 249 247 243 240 238 238
177 213 251 322 349 6 145 158 120 113 89 184 145 258 340 342 193 187 185 197 203 206 217 223 226 226 228 226 229 231 255 230 235 249 246 244 251 248 251 256 251 245 243 243
163 147 170 222 215 157 143 175 127 128 113 167 216 246 277 248 195 174 181 188 201 206 205 213 218 224 232 236 234 237 237 220 215 226 231 245 246 251 248 250 249 249 246 244
175 189 170 223 212 157 153 168 169 120 162 157 240 200 215 202 196 192 186 178 184 192 196 213 220 222 227 236 240 239 239 240 236 240 244 230 245 262 251 247 245 247 244 245
339 172 177 291 205 182 162 172 168 147 145 203 180 247 263 197 192 177 182 177 171 170 175 179 179 181 194 207 220 229 234 244 240 237 246 250 247 265 251 248 248 246 241 244
86 172 65 224 125 81 23 211 183 164 180 146 157 214 150 180 179 195 187 182 169 175 179 178 174 178 192 218 223 227 237 243 245 250 249 258 251 253 247 262 259 256 247 243
118 298 115 170 60 177 237 285 182 175 174 206 169 158 187 195 201 195 193 186 176 174 177 177 173 176 185 188 191 202 218 223 229 236 242 248 250 251 254 267 257 249 245 242
127 131 99 128 184 275 270 186 182 165 241 193 198 156 178 154 156 198 202 198 188 184 186 183 178 174 176 181 200 219 227 216 218 225 240 242 245 253 259 266 260 262 250 251
74 102 100 140 154 205 239 199 137 88 306 192 150 142 137 135 139 237 206 207 199 191 185 181 180 183 197 201 213 237 253 270 256 269 287 277 267 268 269 267 260 266 259 245
116 116 168 145 127 289 252 283 129 113 235 214 184 166 157 169 195 199 196 198 198 195 181 182 182 186 192 209 252 262 261 265 269 278 275 290 277 284 279 272 268 266 262 260
143 137 177 113 138 246 208 235 164 194 256 234 194 187 173 184 168 165 172 180 179 176 174 177 180 188 204 224 247 241 240 249 246 260 270 288 279 287 281 269 267 265 265 267
52 226 160 175 209 303 310 277 158 176 149 188 199 189 182 164 162 167 162 165 167 168 170 175 185 192 217 241 239 244 249 241 238 248 264 278 291 305 288 270 262 261 260 256
327 345 59 352 243 329 318 17 9 319 175 211 208 198 181 169 168 165 165 166 166 170 172 177 190 226 248 245 245 254 253 254 244 251 268 281 290 299 295 278 266 264 257 258
253 327 15 289 320 341 22 2 3 332 238 156 171 189 179 175 170 169 169 170 174 175 180 189 212 247 268 271 268 270 263 254 255 268 280 289 287 283 282 270 278 274 278 276
228 217 156 238 209 239 294 327 344 358 9 184 171 180 187 193 176 175 178 183 183 182 185 190 227 265 300 292 269 256 248 257 270 282 294 298 285 279 268 264 262 271 279 283
Wind_Speed_850mb
3 8 20 22 14 2 9 4 8 5 11 11 15 12 16 34 39 37 28 31 57 68 62 61 56 47 43 36 31 30 30 28 35 33 25 26 23 17 8 9 16 11 12 12
9 12 26 9 15 12 12 9 10 6 6 9 12 20 11 14 30 40 35 37 53 52 65 66 60 55 49 41 38 39 34 29 28 30 26 27 25 17 14 13 12 11 12 12
16 16 7 8 6 13 12 18 13 1 12 7 6 12 13 13 31 36 40 45 43 55 68 68 66 61 53 49 45 43 36 31 22 20 27 29 26 25 23 19 18 13 11 14
12 16 16 10 14 16 15 26 27 13 11 5 8 9 9 13 14 21 37 53 45 59 76 72 70 67 63 56 46 46 36 40 29 24 27 36 33 33 24 22 21 11 15 16
16 7 6 10 28 17 25 15 33 22 6 5 7 3 12 8 17 29 43 53 59 59 77 82 79 71 63 60 51 44 40 39 37 33 30 33 34 37 32 25 25 23 21 25
15 7 14 19 12 18 6 13 17 13 7 6 11 11 12 11 20 24 34 49 64 63 77 81 74 77 71 66 57 47 44 40 41 41 38 40 37 39 36 34 32 29 23 23
12 11 8 10 9 6 11 12 6 5 1 11 1 10 18 15 16 18 38 49 67 68 78 82 78 77 70 67 62 56 50 44 44 44 43 42 41 42 38 40 36 33 27 22
7 15 8 10 14 16 9 17 12 11 7 8 8 11 11 6 7 13 27 50 59 64 84 86 76 78 69 60 57 55 54 51 48 48 45 43 43 39 43 32 37 35 33 30
10 12 9 10 11 17 9 5 9 14 8 5 6 13 19 3 14 14 19 40 58 67 75 91 82 73 71 60 64 55 47 53 48 44 48 47 45 46 39 36 35 39 35 32
10 4 11 14 8 5 17 15 5 5 9 8 8 10 11 7 9 11 8 29 44 59 67 78 76 71 74 61 61 59 54 53 45 42 44 47 47 48 39 35 37 35 37 35
11 7 14 1 4 16 4 2 11 12 8 11 4 11 13 16 13 16 21 33 42 48 59 67 72 69 61 57 54 58 51 48 48 48 46 51 46 52 51 45 40 40 43 41
19 11 9 23 10 2 3 10 12 10 8 3 9 10 4 17 15 21 27 33 37 49 50 48 48 60 54 68 50 44 47 59 57 51 43 45 46 49 52 54 51 45 46 45
16 9 5 20 14 7 6 8 10 11 7 12 12 11 5 9 8 32 31 30 37 44 42 40 38 42 53 63 73 51 31 34 40 45 59 49 49 49 54 52 50 52 54 53
25 8 16 23 18 11 9 7 9 13 8 9 11 8 10 4 11 13 28 36 38 42 39 38 35 35 39 47 63 63 50 47 35 23 20 45 49 53 51 53 51 53 53 59
7 13 12 14 16 12 10 19 15 8 9 12 11 20 20 22 19 40 43 41 43 45 45 38 32 28 32 39 45 52 63 57 53 59 39 34 36 53 63 57 55 51 51 53
1 3 6 1 8 13 11 17 15 14 9 5 11 14 5 16 19 20 47 45 48 51 42 35 29 24 23 25 30 34 46 55 58 61 55 56 59 55 44 52 57 58 53 50
4 6 6 5 3 7 6 14 12 9 8 13 12 20 13 11 19 39 45 49 52 48 49 45 34 23 15 18 21 25 31 41 47 50 56 56 63 54 49 49 60 63 63 59
10 6 8 4 7 5 13 7 0 11 11 13 8 17 35 48 57 57 56 60 58 55 55 51 37 28 20 17 19 19 21 23 28 32 35 40 48 53 54 55 54 53 57 63
17 8 2 10 6 10 6 7 11 11 14 18 16 12 22 30 31 21 53 60 60 59 52 46 36 32 24 19 14 13 13 12 15 14 18 22 26 30 34 43 44 43 57 63
9 12 8 2 11 11 13 5 9 9 8 7 15 19 27 41 9 11 59 59 61 51 51 49 39 29 23 21 17 14 16 19 16 14 16 20 27 31 32 32 36 34 30 32
5 7 13 2 2 12 14 17 26 14 14 10 36 49 51 21 25 53 53 58 55 50 56 45 36 28 20 16 14 17 20 23 18 16 18 21 26 27 35 35 35 33 37 42
7 11 8 9 8 15 16 7 13 17 4 13 46 52 58 45 36 56 56 56 56 58 50 42 34 27 22 20 22 27 30 24 27 25 24 23 28 28 31 36 35 36 37 38
3 3 9 12 11 16 29 10 17 14 16 16 51 59 65 56 71 69 70 67 63 58 49 39 31 24 19 23 27 32 29 33 34 31 27 25 27 34 32 31 32 32 33 33
8 6 2 7 2 23 35 9 8 21 20 15 40 68 67 62 73 75 72 67 61 52 47 39 25 17 17 18 20 22 33 35 36 34 30 31 33 40 38 32 29 29 29 32
8 12 4 9 9 23 8 42 47 16 6 27 26 63 64 60 78 82 73 65 57 51 39 25 16 14 16 19 21 22 20 24 29 30 34 40 45 43 38 29 30 30 30 32
8 8 5 8 4 6 25 48 37 30 17 30 49 55 59 63 82 77 68 61 56 47 34 22 12 9 9 10 12 16 19 24 29 35 40 38 30 30 28 27 28 34 37 42
Wind_Direction_850mb
59 88 237 204 194 204 163 179 221 209 194 143 210 237 247 200 216 230 234 208 196 209 213 206 209 208 201 195 190 184 173 169 181 182 192 193 184 177 175 126 164 165 206 217
35 217 240 140 173 168 153 185 256 81 152 143 191 230 245 198 224 225 223 211 198 205 208 210 210 207 207 202 198 198 190 179 180 197 200 197 197 200 198 174 173 177 198 222
180 215 140 188 175 157 196 199 214 224 122 44 98 292 236 249 234 220 225 213 207 210 207 207 206 209 207 205 206 204 206 205 198 191 201 206 209 207 198 199 201 199 234 252
216 251 228 229 228 156 213 210 199 173 128 219 171 267 251 192 235 227 217 214 207 206 209 206 206 207 213 210 209 210 213 214 210 207 218 213 224 216 208 211 198 217 247 254
230 184 150 216 241 156 230 155 197 183 95 75 239 26 266 144 217 225 221 209 210 209 209 206 206 211 213 212 213 214 215 212 214 215 219 216 219 216 225 216 227 238 246 258
228 242 177 225 240 193 79 71 46 53 60 318 214 161 281 191 212 218 213 206 206 207 208 206 207 213 212 210 214 217 217 221 222 225 229 229 230 222 233 228 230 238 246 239
327 270 251 187 262 149 96 88 52 25 4 226 69 132 250 278 218 204 202 192 202 205 205 202 205 205 209 211 216 221 219 224 227 233 239 241 241 235 231 233 236 235 236 246
158 318 180 176 184 194 172 153 154 194 187 239 144 221 249 290 71 169 217 202 206 205 202 205 206 205 208 217 218 221 225 226 230 235 243 248 246 245 233 234 230 240 240 244
154 273 284 195 199 143 181 151 182 99 1 57 280 290 310 67 77 97 165 192 200 208 206 211 214 218 218 228 222 225 231 232 228 236 240 246 246 240 237 230 235 240 248 236
220 282 227 283 141 124 161 162 92 13 135 234 293 286 243 294 171 147 153 203 200 212 214 213 218 215 228 226 228 229 236 229 229 238 243 249 247 241 240 239 242 236 233 227
144 121 268 30 216 163 71 188 54 113 125 157 220 258 220 225 226 164 194 219 215 211 214 220 221 226 229 227 234 226 227 228 231 246 249 248 250 245 244 242 241 237 235 232
204 157 243 235 270 218 108 172 137 128 217 153 152 269 190 248 234 169 202 218 212 214 219 226 223 221 224 225 227 221 231 239 246 236 234 245 253 248 249 247 243 240 238 238
177 213 251 322 349 6 145 158 120 113 89 184 145 258 340 342 193 187 185 197 203 206 217 223 226 226 228 226 229 231 255 230 235 249 246 244 251 248 251 256 251 245 243 243
163 147 170 222 215 157 143 175 127 128 113 167 216 246 277 248 195 174 181 188 201 206 205 213 218 224 232 236 234 237 237 220 215 226 231 245 246 251 248 250 249 249 246 244
175 189 170 223 212 157 153 168 169 120 162 157 240 200 215 202 196 192 186 178 184 192 196 213 220 222 227 236 240 239 239 240 236 240 244 230 245 262 251 247 245 247 244 245
339 172 177 291 205 182 162 172 168 147 145 203 180 247 263 197 192 177 182 177 171 170 175 179 179 181 194 207 220 229 234 244 240 237 246 250 247 265 251 248 248 246 241 244
86 172 65 224 125 81 23 211 183 164 180 146 157 214 150 180 179 195 187 182 169 175 179 178 174 178 192 218 223 227 237 243 245 250 249 258 251 253 247 262 259 256 247 243
118 298 115 170 60 177 237 285 182 175 174 206 169 158 187 195 201 195 193 186 176 174 177 177 173 176 185 188 191 202 218 223 229 236 242 248 250 251 254 267 257 249 245 242
127 131 99 128 184 275 270 186 182 165 241 193 198 156 178 154 156 198 202 198 188 184 186 183 178 174 176 181 200 219 227 216 218 225 240 242 245 253 259 266 260 262 250 251
74 102 100 140 154 205 239 199 137 88 306 192 150 142 137 135 139 237 206 207 199 191 185 181 180 183 197 201 213 237 253 270 256 269 287 277 267 268 269 267 260 266 259 245
116 116 168 145 127 289 252 283 129 113 235 214 184 166 157 169 195 199 196 198 198 195 181 182 182 186 192 209 252 262 261 265 269 278 275 290 277 284 279 272 268 266 262 260
143 137 177 113 138 246 208 235 164 194 256 234 194 187 173 184 168 165 172 180 179 176 174 177 180 188 204 224 247 241 240 249 246 260 270 288 279 287 281 269 267 265 265 267
52 226 160 175 209 303 310 277 158 176 149 188 199 189 182 164 162 167 162 165 167 168 170 175 185 192 217 241 239 244 249 241 238 248 264 278 291 305 288 270 262 261 260 256
327 345 59 352 243 329 318 17 9 319 175 211 208 198 181 169 168 165 165 166 166 170 172 177 190 226 248 245 245 254 253 254 244 251 268 281 290 299 295 278 266 264 257 258
253 327 15 289 320 341 22 2 3 332 238 156 171 189 179 175 170 169 169 170 174 175 180 189 212 247 268 271 268 270 263 254 255 268 280 289 287 283 282 270 278 274 278 276
228 217 156 238 209 239 294 327 344 358 9 184 171 180 187 193 176 175 178 183 183 182 185 190 227 265 300 292 269 256 248 257 270 282 294 298 285 279 268 264 262 271 279 283